| time (UTC) | temp F | wind direction | speed MPH | gust MPH | rain 1hr in | rain 24hr in | rain mn in | humidity % | barometer mb |
| 20260506000736 | 48 | 5 | 6.0 | 12.0 | 0.00 | 0.00 | 0.00 | 87 | 1012.2 |
| 20260505235730 | 49 | 5 | 6.0 | 11.0 | 0.00 | 0.00 | 0.00 | 87 | 1012.2 |
| 20260505234704 | 49 | 5 | 6.0 | 10.0 | 0.00 | 0.00 | 0.00 | 87 | 1012.2 |
| 20260505233632 | 49 | 355 | 6.0 | 12.0 | 0.00 | 0.00 | 0.00 | 86 | 1012.3 |
| 20260505232603 | 49 | 355 | 6.0 | 12.0 | 0.00 | 0.00 | 0.00 | 86 | 1012.3 |
| 20260505231548 | 49 | 19 | 6.0 | 9.0 | 0.00 | 0.00 | 0.00 | 85 | 1012.3 |
| 20260505230612 | 49 | 5 | 5.0 | 9.0 | 0.00 | 0.00 | 0.00 | 85 | 1012.4 |
| 20260505225612 | 49 | 5 | 5.0 | 9.0 | 0.00 | 0.00 | 0.00 | 85 | 1012.4 |
| 20260505224558 | 49 | 19 | 6.0 | 9.0 | 0.00 | 0.00 | 0.00 | 84 | 1012.5 |
| 20260505223531 | 49 | 19 | 6.0 | 11.0 | 0.00 | 0.00 | 0.00 | 84 | 1012.5 |
| 20260505222524 | 49 | 5 | 6.0 | 13.0 | 0.00 | 0.00 | 0.00 | 83 | 1012.5 |
| 20260505221504 | 50 | 26 | 6.0 | 13.0 | 0.00 | 0.00 | 0.00 | 83 | 1012.6 |
| 20260505220501 | 50 | 17 | 7.0 | 13.0 | 0.00 | 0.00 | 0.00 | 82 | 1012.5 |
| 20260505215459 | 50 | 14 | 7.0 | 14.0 | 0.00 | 0.00 | 0.00 | 82 | 1012.5 |
| 20260505214438 | 50 | 5 | 8.0 | 14.0 | 0.00 | 0.00 | 0.00 | 81 | 1012.4 |
| 20260505213418 | 51 | 24 | 7.0 | 11.0 | 0.00 | 0.00 | 0.00 | 81 | 1012.4 |
| 20260505212343 | 51 | 17 | 7.0 | 17.0 | 0.00 | 0.00 | 0.00 | 81 | 1012.4 |
| 20260505211322 | 51 | 32 | 7.0 | 17.0 | 0.00 | 0.00 | 0.00 | 80 | 1012.4 |
| 20260505210305 | 52 | 38 | 8.0 | 16.0 | 0.00 | 0.00 | 0.00 | 80 | 1012.3 |
| 20260505205324 | 52 | 45 | 10.0 | 16.0 | 0.00 | 0.00 | 0.00 | 80 | 1012.4 |
| 20260505204333 | 52 | 42 | 11.0 | 14.0 | 0.00 | 0.00 | 0.00 | 79 | 1012.3 |
| 20260505203327 | 53 | 58 | 8.0 | 14.0 | 0.00 | 0.00 | 0.00 | 78 | 1012.3 |
| 20260505201224 | 53 | 51 | 4.0 | 9.0 | 0.00 | 0.00 | 0.00 | 78 | 1012.3 |
| 20260505195100 | 54 | 59 | 7.0 | 10.0 | 0.00 | 0.00 | 0.00 | 76 | 1012.0 |
| 20260505194048 | 54 | 70 | 6.0 | 11.0 | 0.00 | 0.00 | 0.00 | 76 | 1011.8 |
| 20260505193021 | 54 | 62 | 7.0 | 11.0 | 0.00 | 0.00 | 0.00 | 76 | 1011.7 |
| 20260505192011 | 54 | 62 | 6.0 | 10.0 | 0.00 | 0.00 | 0.00 | 77 | 1011.6 |
| 20260505190952 | 54 | 101 | 5.0 | 10.0 | 0.00 | 0.00 | 0.00 | 77 | 1011.4 |
| 20260505190007 | 54 | 78 | 6.0 | 10.0 | 0.00 | 0.00 | 0.00 | 77 | 1011.2 |
| 20260505183835 | 54 | 75 | 9.0 | 11.0 | 0.00 | 0.00 | 0.00 | 75 | 1011.3 |
| 20260505182843 | 55 | 71 | 10.0 | 12.0 | 0.00 | 0.00 | 0.00 | 75 | 1011.3 |
| 20260505181822 | 55 | 83 | 9.0 | 14.0 | 0.00 | 0.00 | 0.00 | 74 | 1011.3 |
| 20260505180828 | 55 | 69 | 10.0 | 14.0 | 0.00 | 0.00 | 0.00 | 73 | 1011.3 |
| 20260505175849 | 55 | 84 | 10.0 | 12.0 | 0.00 | 0.00 | 0.00 | 72 | 1011.3 |
| 20260505174830 | 55 | 109 | 7.0 | 12.0 | 0.00 | 0.00 | 0.00 | 74 | 1011.3 |
| 20260505172616 | 54 | 108 | 7.0 | 13.0 | 0.00 | 0.00 | 0.00 | 78 | 1011.2 |
| 20260505170515 | 54 | 117 | 10.0 | 13.0 | 0.00 | 0.00 | 0.00 | 73 | 1011.3 |
| 20260505165458 | 55 | 106 | 9.0 | 14.0 | 0.00 | 0.00 | 0.00 | 72 | 1011.3 |
| 20260505164510 | 55 | 107 | 10.0 | 14.0 | 0.00 | 0.00 | 0.00 | 72 | 1011.4 |
| 20260505163447 | 55 | 95 | 8.0 | 13.0 | 0.00 | 0.00 | 0.00 | 71 | 1011.4 |
| 20260505162440 | 55 | 113 | 10.0 | 13.0 | 0.00 | 0.00 | 0.00 | 72 | 1011.0 |
| 20260505161453 | 55 | 98 | 9.0 | 13.0 | 0.00 | 0.00 | 0.00 | 71 | 1011.1 |
| 20260505160518 | 55 | 114 | 10.0 | 15.0 | 0.00 | 0.00 | 0.00 | 70 | 1011.2 |
| 20260505152521 | 55 | 115 | 9.0 | 14.0 | 0.00 | 0.00 | 0.00 | 68 | 1011.4 |
| 20260505140126 | 55 | 110 | 10.0 | 13.0 | 0.00 | 0.00 | 0.00 | 72 | 1011.7 |
| 20260505121322 | 57 | 105 | 10.0 | 14.0 | 0.00 | 0.00 | 0.00 | 67 | 1011.6 |
| 20260505120325 | 57 | 94 | 11.0 | 14.0 | 0.00 | 0.00 | 0.00 | 66 | 1011.6 |
| 20260505115328 | 57 | 113 | 12.0 | 15.0 | 0.00 | 0.00 | 0.00 | 67 | 1011.6 |
| 20260505114328 | 56 | 98 | 13.0 | 16.0 | 0.00 | 0.00 | 0.00 | 68 | 1011.7 |
| 20260505112115 | 58 | 95 | 10.0 | 13.0 | 0.00 | 0.00 | 0.00 | 67 | 1011.6 |
| 20260505111047 | 58 | 95 | 7.0 | 12.0 | 0.00 | 0.00 | 0.00 | 66 | 1011.8 |
| 20260505110104 | 57 | 99 | 7.0 | 11.0 | 0.00 | 0.00 | 0.00 | 67 | 1011.9 |
| 20260505102038 | 57 | 111 | 6.0 | 11.0 | 0.00 | 0.00 | 0.00 | 69 | 1012.3 |
| 20260505101012 | 57 | 101 | 6.0 | 11.0 | 0.00 | 0.00 | 0.00 | 70 | 1012.3 |
| 20260505094844 | 56 | 101 | 8.0 | 12.0 | 0.00 | 0.00 | 0.00 | 69 | 1012.4 |
| 20260505093834 | 56 | 90 | 7.0 | 12.0 | 0.00 | 0.00 | 0.00 | 70 | 1012.4 |
| 20260505092812 | 56 | 80 | 5.0 | 10.0 | 0.00 | 0.00 | 0.00 | 71 | 1012.4 |
| 20260505091829 | 56 | 60 | 4.0 | 9.0 | 0.00 | 0.00 | 0.00 | 70 | 1012.4 |
| 20260505090814 | 55 | 70 | 4.0 | 9.0 | 0.00 | 0.00 | 0.00 | 70 | 1012.4 |
| 20260505085757 | 55 | 74 | 5.0 | 9.0 | 0.00 | 0.00 | 0.00 | 69 | 1012.3 |
| 20260505084744 | 55 | 70 | 4.0 | 8.0 | 0.00 | 0.00 | 0.00 | 71 | 1012.4 |
| 20260505083711 | 54 | 22 | 4.0 | 11.0 | 0.00 | 0.00 | 0.00 | 71 | 1012.6 |
| 20260505082716 | 54 | 34 | 4.0 | 11.0 | 0.00 | 0.00 | 0.00 | 71 | 1012.5 |
| 20260505081740 | 53 | 355 | 4.0 | 9.0 | 0.00 | 0.00 | 0.00 | 72 | 1012.7 |
| 20260505080718 | 53 | 49 | 3.0 | 9.0 | 0.00 | 0.00 | 0.00 | 76 | 1012.6 |
| 20260505075647 | 52 | 26 | 5.0 | 8.0 | 0.00 | 0.00 | 0.00 | 75 | 1012.6 |
| 20260505074634 | 51 | 20 | 4.0 | 7.0 | 0.00 | 0.00 | 0.00 | 78 | 1012.6 |
| 20260505073602 | 51 | 38 | 3.0 | 6.0 | 0.00 | 0.00 | 0.00 | 81 | 1012.5 |
| 20260505072607 | 50 | 42 | 4.0 | 9.0 | 0.00 | 0.00 | 0.00 | 82 | 1012.7 |
| 20260505071623 | 50 | 39 | 5.0 | 10.0 | 0.00 | 0.00 | 0.00 | 82 | 1012.7 |
| 20260505065542 | 49 | 42 | 4.0 | 9.0 | 0.00 | 0.00 | 0.00 | 86 | 1013.0 |
| 20260505064541 | 48 | 55 | 6.0 | 9.0 | 0.00 | 0.00 | 0.00 | 87 | 1013.1 |
| 20260505063540 | 48 | 54 | 4.0 | 8.0 | 0.00 | 0.00 | 0.00 | 88 | 1013.3 |
| 20260505062525 | 47 | 45 | 3.0 | 6.0 | 0.00 | 0.00 | 0.00 | 89 | 1013.2 |
| 20260505061506 | 47 | 54 | 3.0 | 6.0 | 0.00 | 0.00 | 0.00 | 90 | 1013.2 |
| 20260505060503 | 46 | 67 | 1.0 | 4.0 | 0.00 | 0.00 | 0.00 | 90 | 1013.2 |
| 20260505055445 | 46 | 68 | 0.0 | 2.0 | 0.00 | 0.00 | 0.00 | 90 | 1013.2 |
| 20260505054419 | 45 | 68 | 1.0 | 3.0 | 0.00 | 0.00 | 0.00 | 90 | 1013.2 |
| 20260505053357 | 45 | 68 | 2.0 | 3.0 | 0.00 | 0.00 | 0.00 | 90 | 1013.2 |
| 20260505052347 | 45 | 69 | 1.0 | 3.0 | 0.00 | 0.00 | 0.00 | 89 | 1013.2 |
| 20260505051359 | 45 | 70 | 1.0 | 3.0 | 0.00 | 0.00 | 0.00 | 90 | 1013.2 |
| 20260505041139 | 46 | 75 | 2.0 | 3.0 | 0.00 | 0.00 | 0.00 | 89 | 1013.1 |
| 20260505032740 | 47 | 75 | 1.0 | 2.0 | 0.00 | 0.00 | 0.00 | 89 | 1013.4 |
| 20260505030637 | 48 | 75 | 1.0 | 2.0 | 0.00 | 0.00 | 0.00 | 88 | 1013.4 |
| 20260505025607 | 48 | 75 | 2.0 | 4.0 | 0.00 | 0.00 | 0.00 | 88 | 1013.5 |
| 20260505023506 | 49 | 78 | 3.0 | 7.0 | 0.00 | 0.00 | 0.00 | 86 | 1013.3 |
| 20260505022439 | 49 | 80 | 3.0 | 7.0 | 0.00 | 0.00 | 0.00 | 86 | 1013.4 |
| 20260505021412 | 49 | 89 | 2.0 | 6.0 | 0.00 | 0.00 | 0.00 | 86 | 1013.4 |
| 20260505015159 | 49 | 52 | 4.0 | 9.0 | 0.00 | 0.00 | 0.00 | 86 | 1013.6 |
| 20260505013036 | 50 | 53 | 6.0 | 9.0 | 0.00 | 0.00 | 0.00 | 87 | 1013.6 |
| 20260505012003 | 50 | 59 | 5.0 | 8.0 | 0.00 | 0.00 | 0.00 | 86 | 1013.7 |
| 20260505010955 | 50 | 88 | 5.0 | 8.0 | 0.00 | 0.00 | 0.00 | 87 | 1013.8 |
| 20260505005926 | 51 | 94 | 5.0 | 8.0 | 0.00 | 0.00 | 0.00 | 86 | 1013.9 |
| 20260505004935 | 51 | 54 | 4.0 | 6.0 | 0.00 | 0.00 | 0.00 | 86 | 1014.0 |
| 20260505002811 | 51 | 61 | 4.0 | 10.0 | 0.00 | 0.00 | 0.00 | 86 | 1014.1 |
| 20260505001817 | 51 | 70 | 6.0 | 10.0 | 0.00 | 0.00 | 0.00 | 86 | 1014.3 |